Tracking 28790 objects as of 18-Apr-2024
HD Live streaming from Space Station
objects crossing your sky now

COSMOS 371

Track COSMOS 371 now!
10-day predictions
COSMOS 371 is classified as:


NORAD ID: 4578
Int'l Code: 1970-083A
Perigee: 716.0 km
Apogee: 718.7 km
Inclination: 74.0 °
Period: 99.0 minutes
Semi major axis: 7088 km
RCS: 2.5963 m2 (large)
Launch date: October 12, 1970
Source: Commonwealth of Independent States (former USSR) (CIS)
Launch site: PLESETSK MISSILE AND SPACE COMPLEX (PKMTR)
Your satellite tracking list
Your tracking list is empty




NASA's NSSDC Master Catalog

Two Line Element Set (TLE):
1 04578U 70083A   24108.71571972  .00001078  00000-0  25832-3 0  9995
2 04578  73.9985 234.4273 0001915  25.8728 334.2530 14.54741231830597
Source of the keplerian elements: AFSPC